星链-3582 (STARLINK-3582 )

导读

STARLINK-3582是美国太空探索技术公司(SpaceX)星链(Starlink)卫星互联网星座的一员,于2022年3月3日发射升空。星链星座旨在为全球提供低延迟、高速率的宽带互联网服务,该卫星属于星座部署中的批次卫星,运行在近地轨道,为全球覆盖的卫星互联网网络提供服务支撑。

Basic Information
目录编号:
51873
目录名称:
STARLINK-3582
国际标识:
2022-022X
轨道中心:
EARTH
卫星名称:
星链-3582
卫星全名:
星链-3582 (STARLINK-3582 )
卫星状态:
在轨 (已飞行1567 天)
发射日期:
2022-03-03 UTC
国别 :
美国 (US)
星等 :
--
Orbit Information
数据来源 国际轨道数据 AOE轨道数据
星历时间 2026-06-17T20:26:01+0800
6小时前
查看轨道信息
2026-06-17T07:00:00+0800
20小时前
查看轨道信息
半长轴 6876.046km 6876.199km
偏心率 0.0001677 0.0000171
轨道倾角 53.205° 53.204°
近地点辐角 212.133° 253.203°
升交点赤经 269.333° 271.904°
平近点角 147.957° 277.063°
近地点 496.755km 497.944km
远地点 499.063km 498.18km
周期 94.573分钟 94.576分钟
每日圈数 15.226308 15.2258
Detailed Information
固有亮度:
5
最大亮度:
2.5
卫星平台:
Starlink v1.5
覆盖范围:
全球
运营商:
太空探索技术公司
运营商所在国:
美国
制造商(研发单位):
太空探索技术公司
制造商所在国:
美国
使用方式:
暂无
Satellite Introduction
星链(Starlink)计划是由太空探索技术公司(SpaceX)提出的一个巨型低轨卫星互联网星座项目,计划在2019年至2024年间在太空搭建由约1.2万颗卫星组成的“星链”网络,其中1584颗将部署在地球上空550千米处的近地轨道,并从2020年开始工作。该卫星仍在工作。
2D Orbit Map
3D Orbit Map
Orbit Altitude Analysis Chart
Orbit Inclination Analysis Chart
Orbit Comprehensive Analysis Chart
View Comprehensive Chart